Location: Cascade Cliffs
(37.7244°N, 119.4871°W)
Time: 23:21:26
(UTC+00:00)

Daily predictions for brighter satellites

Satellite Brightness Start Highest point End
(mag) Time Altitude Azimuth Time Altitude Azimuth Time Altitude Azimuth
Cosmos 1980 Rocket 2.4 12:28:37 61° SSE 12:28:37 61° SSE 12:33:08 10° SSE
Nadezhda 4 Rocket 4.2 12:27:57 10° S 12:34:12 69° E 12:40:26 10° NNE
Cosmos 2369 4.2 12:33:33 42° N 12:35:13 58° ENE 12:40:46 10° SE
Cosmos 2098 Rocket 3.7 12:37:56 68° SSW 12:37:56 68° SSW 12:42:55 10° S
CZ-3 R/B 3.8 12:32:53 33° WSW 12:39:56 43° SW 12:48:14 10° SE
COSMOS 2455 3.2 12:38:25 38° N 12:40:37 60° ENE 12:46:32 10° SE
Tiangong 0.3 12:46:33 25° E 12:46:33 25° E 12:48:02 10° E
Cosmos 2333 Rocket 4.1 12:53:22 10° N 12:58:11 26° ENE 13:02:56 10° ESE
Cosmos 841 Rocket 3.4 12:59:06 62° WNW 12:59:06 62° WNW 13:04:15 10° N
NOSS 2-1 (D) 3.9 13:01:37 47° N 13:02:33 60° ENE 13:07:39 10° SE
USA 59 Rocket 0.2 13:03:00 52° N 13:03:53 70° ENE 13:09:12 10° SE
Cosmos 1606 Rocket 3.4 13:04:11 41° N 13:05:43 90° SE 13:10:05 10° S
Cosmos 1933 3.4 13:08:20 55° SSW 13:08:20 55° SSW 13:11:24 10° S
NOSS 2-1 (E) 3.9 13:11:15 35° N 13:12:44 59° ENE 13:17:48 10° SE
SL-24 R/B - RUBIN 2 4.5 13:15:04 32° SW 13:15:04 32° SW 13:18:19 10° S
Cosmos 1484 Rocket 4.1 13:17:31 10° NNE 13:20:40 34° E 13:23:46 10° SSE
Cosmos 2322 Rocket 3.9 13:17:43 10° N 13:22:43 31° ENE 13:27:40 10° ESE
PKM 3.3 13:23:20 56° SW 13:23:20 56° SW 13:25:52 10° SSE
Cosmos 1627 Rocket 4.4 13:17:28 10° S 13:23:35 88° E 13:29:43 10° N
Cosmos 1898 Rocket 3.6 13:27:15 26° NW 13:29:58 52° WSW 13:35:03 10° S
Meteor 2-3 Rocket 3.7 13:25:08 10° SSW 13:30:47 59° W 13:36:26 10° N
Cosmos 1726 Rocket 3.4 13:28:08 18° NNW 13:31:10 63° W 13:35:16 10° S
NOSS 2-1 (C) 3.5 13:30:06 33° NW 13:31:54 75° WSW 13:37:15 10° SSE
IRS-1D 3.6 13:28:02 10° N 13:32:51 47° WNW 13:37:43 10° SW
Okean 1 4.4 13:30:25 10° N 13:33:46 39° E 13:37:07 10° SSE
Helios 1A Rocket 2.3 13:34:15 10° SSE 13:37:34 85° ENE 13:40:25 14° NNW
Cosmos 2237 4.2 13:34:50 17° NNW 13:39:07 60° WSW 13:44:41 10° S
COSMOS 2406 3.7 13:34:38 12° WSW 13:39:18 34° WNW 13:44:27 10° N
NOSS 3-1 (C) 4.2 13:33:40 14° NW 13:40:26 82° WSW 13:49:41 10° SSE
Cosmos 1626 Rocket 4.3 13:39:00 10° S 13:43:19 55° E 13:47:37 10° NNE
Cosmos 2082 Rocket 3.7 13:48:00 16° NW 13:48:00 16° NW 13:50:37 10° NNW
Cosmos 1892 Rocket 4.0 13:43:26 10° SSW 13:47:27 37° WNW 13:51:32 10° N
Cosmos 2026 Rocket 4.0 13:44:18 10° SSW 13:50:10 53° W 13:56:06 10° N
SL-16 R/B 2.2 13:44:41 10° NNW 13:50:23 88° WSW 13:56:02 10° SSE
Cosmos 1937 Rocket 3.8 13:48:18 14° NW 13:52:19 44° WSW 13:57:08 10° S
SL-4 R/B 4.0 13:52:00 10° N 13:52:58 11° NNE 13:53:57 10° NE
Cosmos 858 Rocket 4.5 13:48:09 10° NNW 13:53:16 64° WSW 13:58:23 10° S
COSMO-SKYMED 1 2.8 13:57:00 10° S 14:00:54 42° W 14:04:50 10° NNW
ARIANE 5 R/B 4.2 13:57:06 10° NNE 14:01:57 38° E 14:06:47 10° SSE
Cosmos-2242 2.9 13:59:06 10° NNW 14:03:17 65° W 14:07:24 10° S
IRIDIUM 104 4.4 13:58:47 10° S 14:03:59 87° E 14:09:14 10° N
BREEZE M DEB (TANK) 1.9 14:02:56 20° W 14:04:10 40° NNW 14:07:23 10° NE
OAO 2 Rocket 4.2 14:00:49 10° WSW 14:05:47 47° SSE 14:10:40 10° E
CZ-2D R/B 4.3 14:07:02 10° NNE 14:10:03 40° E 14:13:03 10° S
Cosmos 405 Rocket 2.2 14:09:46 10° SSW 14:12:57 58° W 14:16:12 10° N
Cosmos 1814 Rocket 4.1 14:07:54 10° SSW 14:12:59 56° WNW 14:18:11 10° N
IRIDIUM 114 4.3 14:07:55 10° S 14:13:07 76° W 14:18:21 10° N
Cosmos 2278 3.7 14:08:30 10° NNW 14:14:06 64° WSW 14:19:39 10° S
DMSP B5D1-3 4.5 14:09:14 10° S 14:14:19 71° WSW 14:19:26 10° NNW
Cosmos 1092 Rocket 4.5 14:10:22 10° SW 14:16:08 38° WNW 14:21:54 10° N
Cosmos 1553 Rocket 4.1 14:13:04 10° N 14:19:28 81° W 14:25:52 10° S
ATLAS CENTAUR Rocket 4.4 14:15:09 10° WSW 14:20:25 48° SSE 14:44:48 10° E
Cosmos 1602 Rocket 3.8 14:17:11 10° S 14:21:35 78° E 14:26:02 10° N
CBERS-1 4.0 14:16:37 10° N 14:21:38 59° WNW 14:26:35 10° SSW
Tiangong -0.5 14:18:54 10° W 14:21:38 25° SSW 14:24:22 10° SSE
IRIDIUM 103 4.4 14:17:09 10° SSW 14:22:18 62° W 14:27:28 10° N
CORIOLIS 4.2 14:17:35 10° NNE 14:23:00 88° ESE 14:28:24 10° SSW
ATLAS 2AS CENTAUR R/B 2.9 14:18:23 10° SSW 14:25:31 87° ESE 14:32:29 10° NNE
COSMOS 2455 4.2 14:21:50 10° WNW 14:25:58 19° WSW 14:30:06 10° SSW
Cosmos 2058 Rocket 3.8 14:22:55 10° NNW 14:26:49 31° W 14:30:42 10° SSW
MOS 1 Rocket 4.1 14:26:27 10° NNE 14:31:48 69° E 14:37:00 10° S
IGS 5A 4.1 14:29:08 10° N 14:32:39 30° WNW 14:36:10 10° SW
